Location: Poughquag
(41.6090°N, 73.6820°W)
Time: 13:19:15
(UTC-04:00)

CUBEBUG 2 - Pass Details

Date: 01 June 2024
Orbit: 571 x 666 km, 97.8° (Epoch: 14 June)

Event Time Altitude Azimuth Distance (km) Brightness Sun altitude
Rises 04:17:51 0° 355° (N) 2,998 ? -10.5°
Reaches altitude 10° 04:20:44 10° 336° (NNW) 2,090 ? -10.1°
Maximum altitude 04:23:39 17° 296° (WNW) 1,667 ? -9.7°
Drops below altitude 10° 04:26:35 10° 256° (WSW) 2,090 ? -9.3°
Enters shadow 04:26:46 - 254° (WSW) 2,140 ? -9.3°
